Weather History for KGRB - September, 2013

Change the Weather History Date:

Thursday, September 12, 2013

  Actual Average Record
Temperature  
Mean Temperature 60 °F 61 °F  
Max Temperature 72 °F 72 °F 93 °F (1952)
Min Temperature 48 °F 50 °F 32 °F (1955)
Degree Days  
Heating Degree Days 5 6  
Month to date heating degree days 23 49  
Since 1 July heating degree days 63 112  
Cooling Degree Days 0 1  
Month to date cooling degree days 43 22  
Year to date cooling degree days 521 384  
Growing Degree Days 12 (Base 50)    
Moisture  
Dew Point 53 °F    
Average Humidity 75    
Maximum Humidity 100    
Minimum Humidity 49    
Precipitation  
Precipitation 0.00 in 0.10 in 1.53 in (1984)
Month to date precipitation 1.88 1.21  
Year to date precipitation 25.87 21.61  
Snow  
Snow 0.00 in 0.00 in 0.00 in ()
Month to date snowfall 0.0 0.0  
Since 1 July snowfall 0.0 0.0  
Since 1 September snowfall 0.0 0.0  
Snow Depth 0.00 in    
Sea Level Pressure  
Sea Level Pressure 30.04 in    
Wind  
Wind Speed 9 mph (NNW)    
Max Wind Speed 23 mph    
Max Gust Speed 30 mph    
Visibility 10 miles    
Events      
T = Trace of Precipitation, MM = Missing Value Source: NWS Daily Summary

Daily Weather History Graph

Daily Weather History Graph

Search for Another Location

Airport or City:

Trip Planner

Search our weather history database for the weather conditions in past years. The results will help you decide how hot, cold, wet, or windy it might be!

Date:

Astronomy

Sep. 12, 2013 Rise Set
Actual Time 6:28 AM CDT 7:08 PM CDT
Civil Twilight 5:58 AM CDT 7:37 PM CDT
Nautical Twilight 5:24 AM CDT 8:12 PM CDT
Astronomical Twilight 4:47 AM CDT 8:48 PM CDT
Moon 2:11 PM CDT (9/12) 11:48 PM CDT (9/12)
Length of Visible Light 13h 38m
Length of Day
12h 40m
Waxing Crescent, 50% of the Moon is Illuminated
Sep 12
Waxing Crescent
Sep 12
First Quarter
Sep 19
Full
Sep 26
Last Quarter
Oct 4
New

Hourly Weather History & Observations

Time (CDT) Temp. Dew Point Humidity Pressure Visibility Wind Dir Wind Speed Gust Speed Precip Events Conditions
12:53 AM 59.0 °F 57.9 °F 96% 29.97 in 10.0 mi WNW 5.8 mph - N/A   Clear
1:53 AM 57.9 °F 57.0 °F 97% 29.96 in 10.0 mi WNW 5.8 mph - N/A   Clear
2:53 AM 59.0 °F 55.9 °F 90% 29.96 in 10.0 mi NNW 3.5 mph - N/A   Clear
3:53 AM 57.0 °F 55.9 °F 96% 29.96 in 10.0 mi Calm Calm - N/A   Clear
4:53 AM 55.9 °F 55.0 °F 97% 29.96 in 10.0 mi Calm Calm - N/A   Scattered Clouds
5:53 AM 55.0 °F 55.0 °F 100% 29.99 in 10.0 mi West 3.5 mph - N/A   Mostly Cloudy
6:53 AM 57.0 °F 55.9 °F 96% 30.00 in 10.0 mi WNW 3.5 mph - N/A   Mostly Cloudy
7:53 AM 60.1 °F 57.0 °F 90% 30.02 in 10.0 mi NNW 3.5 mph - N/A   Mostly Cloudy
8:53 AM 64.0 °F 55.9 °F 75% 30.03 in 10.0 mi North 12.7 mph - N/A   Partly Cloudy
9:53 AM 66.0 °F 57.0 °F 73% 30.03 in 10.0 mi NNE 10.4 mph - N/A   Mostly Cloudy
10:53 AM 68.0 °F 57.0 °F 68% 30.05 in 10.0 mi NNW 8.1 mph - N/A   Mostly Cloudy
11:53 AM 68.0 °F 57.0 °F 68% 30.05 in 10.0 mi Variable 6.9 mph - N/A   Mostly Cloudy
12:53 PM 68.0 °F 55.0 °F 63% 30.05 in 10.0 mi NNW 9.2 mph - N/A   Scattered Clouds
1:53 PM 71.1 °F 55.9 °F 59% 30.04 in 10.0 mi North 9.2 mph - N/A   Mostly Cloudy
2:53 PM 69.1 °F 54.0 °F 58% 30.03 in 10.0 mi North 10.4 mph 23.0 mph N/A   Partly Cloudy
3:53 PM 70.0 °F 50.0 °F 49% 30.03 in 10.0 mi North 18.4 mph 25.3 mph N/A   Clear
4:53 PM 68.0 °F 48.9 °F 50% 30.05 in 10.0 mi North 13.8 mph 24.2 mph N/A   Scattered Clouds
5:53 PM 64.9 °F 46.9 °F 52% 30.07 in 10.0 mi North 16.1 mph - N/A   Clear
6:53 PM 62.1 °F 48.0 °F 60% 30.09 in 10.0 mi NNE 13.8 mph - N/A   Overcast
7:53 PM 57.9 °F 46.0 °F 65% 30.12 in 10.0 mi NNE 16.1 mph 26.5 mph N/A   Partly Cloudy
8:53 PM 55.9 °F 46.0 °F 69% 30.15 in 10.0 mi North 10.4 mph - N/A   Mostly Cloudy
9:53 PM 53.1 °F 45.0 °F 74% 30.16 in 10.0 mi North 10.4 mph - N/A   Scattered Clouds
10:53 PM 53.1 °F 44.1 °F 71% 30.16 in 10.0 mi North 10.4 mph - N/A   Clear
11:53 PM 48.9 °F 44.1 °F 83% 30.18 in 10.0 mi North 6.9 mph - N/A   Clear